Regional Weather Roundup
Issued by NWS Cleveland, OH

Home | Current Version | Previous Version | Graphics & Text | Print | Product List | Glossary On
Versions: 1 2 3 4 5 6 7 8 9 10 11 12 13 14 15 16 17 18 19 20 21 22 23 24 25 26 27 28 29 30 31 32 33 34 35 36 37 38 39 40 41 42 43 44 45 46 47 48 49 50
000
ASUS41 KCLE 091200
RWRCLE
OHIO REGIONAL WEATHER ROUNDUP
NATIONAL WEATHER SERVICE WILMINGTON, OH
700 AM EST FRI DEC 09 2016

NOTE: "FAIR" INDICATES FEW OR NO CLOUDS BELOW 12,000 FEET WITH NO
SIGNIFICANT WEATHER AND/OR OBSTRUCTIONS TO VISIBILITY.

OHZ001>008-015>018-024>027-034-035-043-044-091300-
   NORTHWEST OHIO

CITY           SKY/WX    TMP DP  RH WIND       PRES   REMARKS
DEFIANCE       CLOUDY    24  16  71 W7        30.39R WCI  16
FINDLAY        CLOUDY    23  15  71 W18G25    30.38R WCI   9
TOLEDO EXPRESS LGT SNOW  22  20  92 W14       30.36R FOG     WCI   9
TOLEDO EXEC    CLOUDY    24  19  81 W15       30.37S WCI  11
LIMA           CLOUDY    21  17  84 W21       30.40R WCI   5
$$

OHZ009>014-019>023-028>033-038-089-091300-
   NORTHEAST OHIO

CITY           SKY/WX    TMP DP  RH WIND       PRES   REMARKS
CLE-HOPKINS    FLURRIES  25  17  72 SW13      30.36R WCI  14
CLE-LAKEFRONT  CLOUDY    25  19  78 SW20      30.32R WCI  11
CUY CO. ARPT   LGT SNOW  25  21  86 W14G23    30.30  WCI  13
LORAIN-ELYRIA  CLOUDY    23  17  78 W14       30.35R WCI  11
ASHTABULA      FLURRIES  24  21  88 SW12      30.26R WCI  13
AKRON-CANTON   FLURRIES  23  16  74 W12       30.32R WCI  12
WOOSTER        CLOUDY    21  16  79 W17       30.34R WCI   7
MANSFIELD      LGT SNOW  20  17  88 SW12      30.33R FOG     WCI   8
YOUNGSTOWN     LGT SNOW  22  18  85 W12       30.27R FOG     WCI  10
$$

OHZ042-051>053-060>062-070>072-077>081-091300-
  SOUTHWEST OHIO

CITY           SKY/WX    TMP DP  RH WIND       PRES   REMARKS
CINC-COVINGTON FLURRIES  21  12  68 W9        30.49R WCI  11
CINC-LUNKEN    CLOUDY    23  14  68 W12       30.54R WCI  12
HAMILTON       CLOUDY    23  14  68 W7        30.52R WCI  15
DAYTON         NOT AVBL
WRIGHT-PAT AFB MOCLDY    18  15  87 SW7       30.46R WCI   8
DAYTON GENERAL FAIR      19  14  81 W6        30.46R WCI  11
WILMINGTON     FAIR      17  13  84 W9        30.45R WCI   6
$$

OHZ036-037-039>041-045>050-054>059-063>069-073>076-082>088-091300-
  CENTRAL AND SOUTHEAST OHIO

CITY           SKY/WX    TMP DP  RH WIND       PRES   REMARKS
COLUMBUS       FLURRIES  21  16  81 W13       30.44R WCI   9
OSU AIRPORT    CLOUDY    21  15  78 W12       30.42R WCI   9
BOLTON FIELD   NOT AVBL
RICKENBACK AFB NOT AVBL
NEWARK         CLOUDY    22  15  75 W12       30.41R WCI  10
MARION         CLOUDY    22  16  78 W13       30.38R WCI  10
LANCASTER      CLOUDY    21  15  78 W8        30.44R WCI  11
ZANESVILLE     CLOUDY    22  15  75 W10       30.40R WCI  11
NEW PHILLY     CLOUDY    22  17  81 W7        30.38R WCI  13
$$



USA.gov is the U.S. government's official web portal to all federal, state and local government web resources and services.